Location: Auckland
(36.8670°S, 174.7670°E)
Time: 18:16:14
(UTC+13:00)

ISS - Pass Details

Date: 31 January 2019
Orbit: 411 x 421 km, 51.6° (Epoch: 23 October)

Event Time Altitude Azimuth Distance (km) Brightness Sun altitude
Exits shadow 03:10:27 - 100° (E) 1,973 0.1 -31.0°
Enters shadow 04:07:32 -66° 309° (NW) 12,140 3.6 -24.6°
Maximum altitude 04:43:42 60° 219° (SW) 491 -3.5 -19.6°
Sets 04:49:11 0° 133° (SE) 2,381 1.8 -18.7°
